KJ4UBX-11 Weather Reports


time (UTC)temp
F
wind
direction
speed
knots
gust
knots
rain 1hr
in
rain 24hr
in
rain mn
in
humidity
%
barometer
mb
20260506025635 62 0.0 0.0 0.00 0.00 0.00 67 1006.5
20260506024653 63 0.0 0.0 0.00 0.00 0.00 67 1006.6
20260506023710 63 0.0 0.0 0.00 0.00 0.00 66 1006.7
20260506022728 64 0.0 0.0 0.00 0.00 0.00 64 1006.6
20260506021745 64 0.0 0.0 0.00 0.00 0.00 64 1006.8
20260506020802 64 0.0 0.0 0.00 0.00 0.00 63 1006.7
20260506015818 64 0.0 0.0 0.00 0.00 0.00 63 1006.8
20260506014835 65 0.0 0.0 0.00 0.00 0.00 61 1006.7
20260506013852 65 0.0 0.0 0.00 0.00 0.00 62 1006.8
20260506012908 65 0.0 0.0 0.00 0.00 0.00 61 1006.6
20260506011926 66 0.0 0.0 0.00 0.00 0.00 61 1006.8
20260506010943 65 0.0 0.0 0.00 0.00 0.00 62 1006.6
20260506010000 66 0.0 0.0 0.00 0.00 0.00 61 1006.5
20260506005017 66 0.0 0.0 0.00 0.00 0.00 60 1006.4
20260506004034 66 0.0 0.0 0.00 0.00 0.00 60 1006.4
20260506003051 67 0.0 0.0 0.00 0.00 0.00 58 1006.1
20260506002109 67 0.0 0.0 0.00 0.00 0.00 57 1005.8
20260506001125 68 0.0 0.0 0.00 0.00 0.00 57 1005.6
20260506000143 68 0.0 0.0 0.00 0.00 0.00 56 1005.0
20260505235200 69 0.0 0.0 0.00 0.00 0.00 55 1004.9
20260505234217 70 0.0 0.0 0.00 0.00 0.00 55 1005.1
20260505233234 70 0.0 0.0 0.00 0.00 0.00 54 1005.2
20260505232251 70 0.0 0.0 0.00 0.00 0.00 54 1005.1
20260505231306 69 0.0 0.0 0.00 0.00 0.00 54 1005.1
20260505230322 69 0.0 0.0 0.00 0.00 0.00 55 1005.0
20260505225340 69 0.0 0.0 0.00 0.00 0.00 52 1003.7
20260505224356 69 0.0 0.0 0.00 0.00 0.00 52 1003.4
20260505223415 70 0.0 0.0 0.00 0.00 0.00 51 1003.3
20260505222432 71 0.0 0.0 0.00 0.00 0.00 51 1003.1
20260505221449 71 0.0 0.0 0.00 0.00 0.00 50 1003.0
20260505220506 71 0.0 0.0 0.00 0.00 0.00 50 1002.9
20260505215523 72 0.0 0.0 0.00 0.00 0.00 50 1002.9
20260505214539 72 0.0 0.0 0.00 0.00 0.00 50 1002.9
20260505213557 72 0.0 0.0 0.00 0.00 0.00 50 1002.9
20260505212613 72 0.0 0.0 0.00 0.00 0.00 50 1002.6
20260505211630 72 0.0 0.0 0.00 0.00 0.00 49 1002.7
20260505210647 73 0.0 0.0 0.00 0.00 0.00 48 1002.7
20260505205705 74 0.0 0.0 0.00 0.00 0.00 47 1002.7
20260505204722 74 0.0 0.0 0.00 0.00 0.00 47 1002.6
20260505202745 74 0.0 0.0 0.00 0.00 0.00 46 1002.7
20260505201801 74 0.0 0.0 0.00 0.00 0.00 48 1002.8
20260505200817 73 0.0 0.0 0.00 0.00 0.00 47 1002.9
20260505195834 74 0.0 0.0 0.00 0.00 0.00 48 1003.0
20260505194849 74 0.0 0.0 0.00 0.00 0.00 47 1003.1
20260505193905 73 0.0 0.0 0.00 0.00 0.00 50 1003.2
20260505192921 73 0.0 0.0 0.00 0.00 0.00 50 1003.4
20260505191936 71 0.0 0.0 0.00 0.00 0.00 51 1003.4
20260505190953 70 0.0 0.0 0.00 0.00 0.00 53 1003.8
20260505190011 71 0.0 0.0 0.00 0.00 0.00 51 1003.9
20260505185028 72 0.0 0.0 0.00 0.00 0.00 50 1004.0
20260505184044 72 0.0 0.0 0.00 0.00 0.00 52 1004.0
20260505183101 72 0.0 0.0 0.00 0.00 0.00 51 1004.2
20260505182118 72 0.0 0.0 0.00 0.00 0.00 52 1004.3
20260505181135 72 0.0 0.0 0.00 0.00 0.00 51 1004.3
20260505180150 72 0.0 0.0 0.00 0.00 0.00 52 1004.4
20260505175205 70 0.0 0.0 0.00 0.00 0.00 53 1004.4
20260505174222 70 0.0 0.0 0.00 0.00 0.00 52 1004.6
20260505173239 71 0.0 0.0 0.00 0.00 0.00 52 1004.8
20260505172257 71 0.0 0.0 0.00 0.00 0.00 52 1004.9
20260505171313 71 0.0 0.0 0.00 0.00 0.00 50 1005.1
20260505170331 73 0.0 0.0 0.00 0.00 0.00 50 1005.2
20260505165348 73 0.0 0.0 0.00 0.00 0.00 46 1005.3
20260505164403 71 0.0 0.0 0.00 0.00 0.00 48 1005.6
20260505163421 72 0.0 0.0 0.00 0.00 0.00 47 1005.7
20260505162438 71 0.0 0.0 0.00 0.00 0.00 51 1006.0
20260505161454 72 0.0 0.0 0.00 0.00 0.00 46 1006.0
20260505160512 74 0.0 0.0 0.00 0.00 0.00 44 1006.1
20260505152639 89 0.0 0.0 0.00 0.00 0.00 30 1006.5
20260505151652 89 0.0 0.0 0.00 0.00 0.00 31 1006.8
20260505150700 82 0.0 0.0 0.00 0.00 0.00 36 1006.9
20260505124124 87 0.0 0.0 0.00 0.00 0.00 31 1006.6
20260505123138 89 0.0 0.0 0.00 0.00 0.00 30 1006.5
20260505122152 85 0.0 0.0 0.00 0.00 0.00 33 1006.6
20260505121202 78 0.0 0.0 0.00 0.00 0.00 40 1006.6
20260505120212 71 0.0 0.0 0.00 0.00 0.00 48 1007.0
20260505115225 67 0.0 0.0 0.00 0.00 0.00 53 1007.0
20260505114241 65 0.0 0.0 0.00 0.00 0.00 57 1007.1
20260505113258 66 0.0 0.0 0.00 0.00 0.00 56 1007.3
20260505112314 65 0.0 0.0 0.00 0.00 0.00 57 1007.1
20260505111327 62 0.0 0.0 0.00 0.00 0.00 63 1007.0
20260505110342 60 0.0 0.0 0.00 0.00 0.00 67 1007.1
20260505101504 56 0.0 0.0 0.00 0.00 0.00 78 1007.1
20260505100520 55 0.0 0.0 0.00 0.00 0.00 79 1007.1
20260505095537 55 0.0 0.0 0.00 0.00 0.00 79 1007.1
20260505094555 54 0.0 0.0 0.00 0.00 0.00 79 1006.9
20260505092628 54 0.0 0.0 0.00 0.00 0.00 78 1007.1
20260505091644 54 0.0 0.0 0.00 0.00 0.00 77 1007.1
20260505090702 54 0.0 0.0 0.00 0.00 0.00 76 1007.2
20260505085719 55 0.0 0.0 0.00 0.00 0.00 76 1007.3
20260505084736 55 0.0 0.0 0.00 0.00 0.00 75 1007.3
20260505083755 55 0.0 0.0 0.00 0.00 0.00 74 1007.3
20260505082812 55 0.0 0.0 0.00 0.00 0.00 72 1007.3
20260505081830 55 0.0 0.0 0.00 0.00 0.00 71 1007.4
20260505080847 56 0.0 0.0 0.00 0.00 0.00 69 1007.3
20260505075903 56 0.0 0.0 0.00 0.00 0.00 68 1007.2
20260505074921 57 0.0 0.0 0.00 0.00 0.00 69 1007.4
20260505073938 57 0.0 0.0 0.00 0.00 0.00 66 1007.4
20260505072956 57 0.0 0.0 0.00 0.00 0.00 65 1007.3
20260505072013 58 0.0 0.0 0.00 0.00 0.00 64 1007.2
20260505071030 58 0.0 0.0 0.00 0.00 0.00 62 1007.1
20260505070047 59 0.0 0.0 0.00 0.00 0.00 61 1007.1
20260505065105 59 0.0 0.0 0.00 0.00 0.00 60 1007.1
20260505064124 60 0.0 0.0 0.00 0.00 0.00 57 1007.0
20260505063140 61 0.0 0.0 0.00 0.00 0.00 55 1007.0
20260505062158 62 0.0 0.0 0.00 0.00 0.00 53 1006.9
20260505061214 63 0.0 0.0 0.00 0.00 0.00 51 1007.0
20260505060232 63 0.0 0.0 0.00 0.00 0.00 50 1006.9
20260505055250 63 0.0 0.0 0.00 0.00 0.00 49 1006.8
20260505054306 64 0.0 0.0 0.00 0.00 0.00 49 1006.9
20260505053322 64 0.0 0.0 0.00 0.00 0.00 48 1006.8
20260505052340 64 0.0 0.0 0.00 0.00 0.00 48 1006.7
20260505051357 64 0.0 0.0 0.00 0.00 0.00 48 1006.7
20260505050414 64 0.0 0.0 0.00 0.00 0.00 48 1006.7
20260505041537 65 0.0 0.0 0.00 0.00 0.00 49 1006.3
20260505040553 64 0.0 0.0 0.00 0.00 0.00 50 1006.1
20260505035610 63 0.0 0.0 0.00 0.00 0.00 51 1006.1
20260505034626 63 0.0 0.0 0.00 0.00 0.00 52 1006.2
20260505033642 62 0.0 0.0 0.00 0.00 0.00 56 1006.3
20260505032658 61 0.0 0.0 0.00 0.00 0.00 56 1006.2
20260505031713 60 0.0 0.0 0.00 0.00 0.00 59 1006.2
20260505030729 57 0.0 0.0 0.00 0.00 0.00 69 1006.2